Regional Weather Roundup
Issued by NWS

Home | Current Version | Previous Version | Text Only | Print | Product List | Glossary On
Versions: 1 2 3 4 5 6 7 8 9 10 11 12 13 14 15 16 17 18 19 20 21 22 23 24 25 26 27 28 29 30 31 32 33 34 35 36 37 38 39 40 41 42 43 44 45 46 47 48 49 50
000
ASUS43 KDMX 291307
RWRIA

WEATHER ROUNDUP FOR IOWA
NATIONAL WEATHER SERVICE DES MOINES IA
700 AM CST MON DEC 29 2014

NOTE: "FAIR" INDICATES FEW OR NO CLOUDS BELOW 12,000 FEET WITH NO
SIGNIFICANT WEATHER AND/OR OBSTRUCTIONS TO VISIBILITY.

* - THESE STATIONS ARE NOT NWS STATIONS...THUS NOT UNDER NWS
QUALITY CONTROL.  THEY ALSO DO NOT REPORT WEATHER SUCH
AS PRECIPITATION OR FOG.

IAZ001>003-012>014-020>022-031>034-043>046-291400-
   NORTHWEST IOWA

CITY           SKY/WX    TMP DP  RH WIND       PRES   REMARKS
CARROLL *      CLOUDY    19  16  86 NE17G23   30.35R WCI   4
CHEROKEE *     CLOUDY    16  14  93 NE9       30.39R WCI   4
DENISON *      CLOUDY    19  16  86 NE13G20   30.34R WCI   7
LE MARS *      CLOUDY    14  10  85 N9        30.42R WCI   2
ORANGE CITY *  CLOUDY    14  10  85 NE9G18    30.39R WCI   2
SHELDON *      CLOUDY    10   7  85 N18       30.39R WCI  -8
SIOUX CITY     LGT SNOW  19  14  81 NE12      30.40R WCI   7
SPENCER        FLURRIES  14   8  77 N15       30.40R WCI  -1
STORM LAKE *   CLOUDY    16  12  86 NE16      30.37R WCI   0
$$

IAZ055>058-069>071-079>083-090>094-291400-
   SOUTHWEST IOWA

CITY           SKY/WX    TMP DP  RH WIND       PRES   REMARKS
ATLANTIC *     CLOUDY    23  21  93 NE12G17   30.31R WCI  12
AUDUBON *      CLEAR     21  16  79 N10G16    30.33R WCI  10
CLARINDA *     CLOUDY    27  25  93 NE9       30.30R WCI  17
COUNCIL BLFS * LGT SNOW  21  21 100 NE13      30.29R WCI   9
CRESTON *      CLOUDY    25  25 100 NE15      30.28R WCI  12
HARLAN  *      CLOUDY    21  21 100 NE14G21   30.36R WCI   8
LAMONI         PTCLDY    24  22  91 NE6       30.27R WCI  17
RED OAK *      CLOUDY    27  25  93 N12       30.31R WCI  16
SHENANDOAH *   CLOUDY    27  25  93 NE10      30.30R WCI  17
$$

IAZ047>049-059>061-072>074-084-291400-
   CENTRAL IOWA

CITY           SKY/WX    TMP DP  RH WIND       PRES   REMARKS
AMES           LGT SNOW  22  17  81 N9        30.35R WCI  12
ANKENY *       CLOUDY    25  21  86 N9        30.34R WCI  15
CHARITON *     CLOUDY    27  23  86 NE8       30.30R WCI  18
DES MOINES     CLOUDY    25  21  85 NE10      30.33R WCI  15
GRINNELL*      CLOUDY    25  23  93 N10       30.33R WCI  15
KNOXVILLE *    CLOUDY    27  21  80 NE7       30.30R WCI  19
MARSHALLTOWN   CLOUDY    22  18  85 NE15      30.34R WCI   9
PELLA *        MOCLDY    25  23  93 N5        30.33R WCI  19
PERRY *        LGT SNOW  23  21  93 NE12      30.35R WCI  12
$$

IAZ004>006-015-016-023>025-035-036-291400-
   NORTH CENTRAL IOWA

CITY           SKY/WX    TMP DP  RH WIND       PRES   REMARKS
ALGONA *       FLURRIES  14   9  79 N14G20    30.40R WCI  -1
CLARION *      LGT SNOW  16  14  93 NE15      30.38R WCI   1
ESTHERVILLE    CLOUDY    10   5  80 N17       30.41R WCI  -8
FORT DODGE *   CLOUDY    18  10  73 N9        30.38R WCI   6
MASON CITY     CLOUDY    13   7  77 N12       30.40R WCI  -1
FOREST CITY *  CLOUDY    14   5  67 NE9       30.39R WCI   2
IOWA FALLS *   CLOUDY    19  16  86 NE12      30.37R WCI   7
$$

IAZ007>011-017>019-026>030-037>042-050>054-066-291400-
   NORTHEAST IOWA

CITY           SKY/WX    TMP DP  RH WIND       PRES   REMARKS
CEDAR RAPIDS   LGT SNOW  25  23  92 NE8       30.32R FOG     WCI  16
CHARLES CITY * CLOUDY    16   9  73 N13       30.38R WCI   2
CLINTON *      CLOUDY    25  21  86 NE10      30.35R WCI  15
DECORAH *      CLOUDY    16   9  73 N9        30.36R WCI   4
DUBUQUE        MOCLDY    20  14  77 NE13      30.32S WCI   7
MONTICELLO *   CLOUDY    23  21  93 NE7       30.34R WCI  15
OELWEIN *      CLOUDY    19  16  86 N8G14     30.35R WCI   9
WATERLOO       LGT SNOW  20  16  84 N12       30.36R FOG     WCI   8
$$

IAZ064-065-067-068-078-291400-
   EAST CENTRAL IOWA

CITY           SKY/WX    TMP DP  RH WIND       PRES   REMARKS
DAVENPORT      MOCLDY    24  19  81 NE10      30.32R WCI  14
IOWA CITY      CLOUDY    27  21  78 NE8       30.34R WCI  19
MT. PLEASANT * CLOUDY    25  21  86 N7        30.31R WCI  17
MUSCATINE *    MOCLDY    23  18  80 NE7       30.34R WCI  15
QUAD CITIES    CLOUDY    21  18  88 E3        30.32R
$$

IAZ062-063-075>077-085>089-095>099-291400-
   SOUTHEAST IOWA

CITY           SKY/WX    TMP DP  RH WIND       PRES   REMARKS
BURLINGTON     CLEAR     23  20  88 NE5       30.30R WCI  17
FAIRFIELD *    CLOUDY    25  19  80 NE6       30.31R WCI  18
FORT MADISON * CLOUDY    27  23  86 CALM      30.30R
KEOKUK *       MOCLDY    19  19 100 NE5       30.29R WCI  13
OSKALOOSA *    CLOUDY    25  21  86 NE6       30.32R WCI  18
CENTERVILLE *  CLOUDY    27  23  86 NE7       30.30R WCI  19
OTTUMWA        CLOUDY    26  20  77 NE7       30.30R WCI  18
WASHINGTON *   CLOUDY    27  25  93 NE7       30.32R WCI  19
$$

ABBREVIATIONS USED IN REMARKS
   TC - TEMPERATURES IN CELSIUS
  WCI - WIND CHILL INDEX
   HX - HEAT INDEX
  VSB - VISIBILITY
$$



USA.gov is the U.S. government's official web portal to all federal, state and local government web resources and services.